Theta_e
279 280 280 280 280 280 280 280 281 281 281 281 283 285 285 285 285 284 283 283 283 283 283 283 283 284 283 283 283 282 282 282 279 281 282 283 283 283 284 284 284 283 283
279 279 279 279 279 279 279 279 280 280 281 281 282 284 284 284 285 284 283 283 282 282 282 282 281 283 281 282 282 281 281 281 279 278 280 279 281 282 282 281 283 284 283
278 278 278 278 278 278 278 279 280 280 279 280 281 283 284 284 284 284 283 282 282 281 281 281 281 282 281 281 281 280 281 281 280 279 276 278 278 278 280 280 281 281 284
277 277 277 277 277 277 278 278 278 278 278 279 281 282 283 284 285 284 283 282 282 282 283 283 282 282 282 281 281 281 281 280 280 279 276 276 276 278 277 277 278 278 279
276 275 275 276 277 276 276 276 277 277 278 279 280 281 282 284 285 283 283 283 283 282 283 283 283 282 283 283 281 280 280 279 279 278 277 276 275 276 277 276 277 278 279
272 273 274 274 275 274 274 275 275 275 276 278 280 280 280 282 285 287 286 283 283 282 281 281 281 281 282 284 285 285 283 278 279 278 278 277 277 278 278 277 277 277 275
271 272 272 272 272 272 273 273 274 274 275 276 277 279 279 280 284 286 286 284 282 281 281 281 280 281 280 280 282 283 283 284 284 281 279 278 277 278 278 277 277 277 276
270 270 271 269 272 272 271 271 273 274 274 275 277 279 279 280 284 285 285 283 283 282 281 280 279 279 279 278 278 279 280 281 281 280 279 279 279 279 278 278 278 277 278
271 271 272 272 271 270 270 270 272 273 274 275 277 278 279 280 283 284 284 281 281 280 280 279 279 278 280 282 277 276 278 279 282 283 283 284 284 284 284 281 277 277 276
273 272 271 271 270 269 269 270 272 273 273 275 275 277 278 278 281 283 282 279 276 278 278 278 280 277 281 282 279 277 274 276 276 277 277 279 280 278 283 280 279 276 275
275 274 271 271 270 270 269 270 271 271 272 272 273 274 276 277 277 281 282 279 278 277 277 277 278 281 281 282 283 278 277 277 278 279 277 275 272 271 272 275 277 277 275
274 272 270 270 270 271 270 270 270 271 271 271 272 273 275 276 278 280 282 282 282 278 277 278 278 281 281 282 281 282 282 282 279 274 272 274 272 270 270 272 274 275 278
269 268 267 268 269 270 269 269 269 270 270 270 271 271 273 275 277 280 281 282 283 280 279 280 281 281 282 281 281 281 278 272 269 265 269 272 273 273 271 266 269 273 274
265 265 266 266 267 268 269 269 268 268 269 270 270 271 273 274 275 277 277 277 279 280 280 279 279 280 280 280 276 277 275 273 272 272 274 273 271 264 267 269 272 273 273
263 264 265 266 266 266 267 267 268 270 270 270 271 273 271 271 274 279 279 276 275 277 276 272 274 275 273 273 270 269 269 268 267 269 270 273 272 268 271 269 271 272 272
262 263 264 265 263 265 265 266 270 271 272 273 275 274 274 276 277 278 279 280 281 281 275 268 270 271 271 270 268 268 269 269 269 269 269 269 270 270 269 270 270 270 271
261 263 262 262 262 263 263 264 262 266 270 271 273 274 274 275 276 276 277 278 278 275 268 266 267 268 268 267 265 265 265 265 264 263 263 267 266 266 266 268 269 271 271
260 260 259 260 260 261 262 262 263 262 263 264 270 271 272 273 273 274 275 274 262 266 265 263 258 259 260 262 262 262 261 261 259 260 259 260 264 265 265 266 268 269 271
259 258 259 259 260 260 262 261 261 261 262 263 265 268 269 270 271 272 273 262 257 255 257 259 257 257 258 258 258 257 258 260 260 257 258 262 265 265 265 267 269 270 272
257 258 259 259 259 258 259 260 261 261 261 262 263 264 266 265 264 261 260 258 256 255 257 258 259 257 257 257 257 255 256 257 259 256 259 261 263 263 265 267 269 270 273
257 257 257 256 257 258 259 259 261 261 261 262 263 265 269 266 263 257 258 261 260 256 255 255 257 256 255 257 255 256 260 261 258 256 257 261 263 265 266 268 271 273 273
257 256 256 256 257 258 259 260 261 260 261 261 262 263 267 263 261 259 258 256 257 256 256 256 258 257 259 257 256 256 258 260 256 257 258 260 262 264 266 268 270 272 272
256 256 256 257 257 258 259 261 260 260 260 260 261 261 261 261 261 261 261 258 256 256 256 254 256 259 258 256 256 258 260 261 260 257 259 260 262 264 266 267 271 272 270
256 256 256 256 257 258 259 260 260 260 260 260 260 260 260 260 260 260 261 261 257 256 256 257 258 258 259 259 260 261 262 263 263 263 261 262 263 263 265 267 269 271 269
255 255 255 256 256 257 258 259 259 259 259 259 259 258 259 259 259 260 260 260 259 258 257 257 257 258 258 258 258 260 263 265 265 265 264 263 264 264 265 267 269 270 267
254 254 255 256 256 257 257 257 258 259 259 259 259 259 259 259 260 261 261 260 259 259 258 258 258 257 257 259 262 264 264 266 265 265 264 264 263 264 266 268 270 267 263
Wind_Speed
11 12 13 13 14 14 14 16 16 17 18 18 19 18 14 9 10 8 6 6 6 6 6 6 6 6 4 4 3 3 3 3 5 3 2 2 3 5 5 4 4 4 5
11 12 13 14 14 14 15 17 17 18 18 18 18 17 13 9 10 8 8 7 8 7 7 6 6 4 5 4 3 4 4 4 4 6 3 2 5 5 4 6 7 6 4
11 12 14 15 14 16 17 17 18 18 18 18 17 16 15 13 9 9 9 7 6 6 6 6 5 5 4 3 3 4 3 4 3 3 3 2 3 2 5 6 7 5 5
11 12 14 14 15 15 17 17 17 17 19 17 17 17 16 15 11 9 6 4 4 5 6 6 5 5 6 6 6 5 4 4 3 3 2 3 3 3 3 6 7 2 5
12 13 13 15 15 16 16 17 17 16 17 17 16 15 16 13 8 6 6 5 4 5 6 7 7 7 11 9 4 5 4 4 4 4 6 4 3 4 4 3 6 8 6
11 12 12 13 14 15 16 17 18 17 17 17 16 15 15 12 20 18 11 6 7 6 9 7 6 6 8 13 14 15 10 6 7 6 6 7 7 4 4 3 6 8 9
11 11 11 12 12 14 15 16 17 18 17 18 18 16 15 14 24 23 18 6 7 7 8 6 5 5 5 4 9 13 12 14 15 7 7 8 8 7 4 8 9 9 10
10 10 10 8 13 14 15 15 16 16 16 16 17 16 14 12 22 20 17 10 7 8 7 7 7 6 6 4 4 6 7 7 7 5 6 8 9 8 8 9 11 11 10
11 10 11 11 14 15 16 16 16 15 16 14 15 16 13 10 18 17 12 3 3 6 6 5 7 6 9 12 5 7 7 8 7 16 17 18 18 19 15 7 7 9 9
14 11 10 11 13 14 16 16 15 15 16 14 15 15 15 12 17 16 12 1 3 3 4 5 11 7 12 12 7 6 6 6 5 6 5 9 12 9 17 9 7 10 9
17 11 11 12 13 14 14 14 13 14 15 14 14 12 12 10 11 17 14 4 4 3 4 4 4 10 11 12 13 6 7 6 8 7 5 4 3 4 5 5 7 8 10
20 10 13 15 13 13 15 14 14 15 14 13 12 11 8 8 12 14 14 11 9 5 4 4 5 10 10 11 9 11 14 11 1 1 2 5 5 4 4 6 7 9 10
16 17 17 18 15 14 14 13 13 12 11 11 10 10 10 8 7 16 16 15 9 5 3 7 10 12 12 9 9 12 8 0 1 1 5 7 6 5 3 3 6 9 10
18 17 16 16 15 13 11 10 11 11 11 10 10 10 9 8 6 6 6 5 9 8 8 6 7 8 9 7 1 3 0 2 3 5 7 5 4 2 3 3 6 7 7
16 15 15 12 12 14 12 11 11 11 12 13 11 9 8 9 8 16 14 5 6 9 5 2 2 2 2 2 1 2 2 3 3 4 5 7 4 2 5 3 6 7 8
15 13 12 11 13 13 11 12 16 24 26 26 25 17 8 17 21 21 21 19 15 12 0 2 1 2 1 2 2 3 3 3 2 3 2 4 7 7 8 8 7 8 10
14 16 12 14 12 12 13 10 14 14 23 23 23 20 22 22 20 19 18 16 14 11 3 2 1 0 2 2 2 2 2 3 2 2 2 6 6 7 8 8 8 9 9
15 17 13 11 11 11 11 11 10 13 12 10 14 17 18 20 20 19 18 11 5 5 1 1 2 2 2 2 2 2 2 3 3 3 2 3 5 7 8 8 8 9 9
14 12 12 11 11 13 9 12 10 10 11 10 9 12 9 19 19 16 14 2 1 2 3 3 2 2 3 3 3 3 3 4 4 3 3 4 6 6 9 9 9 13 13
12 17 15 11 11 11 10 10 10 10 10 10 9 9 8 9 5 2 1 2 2 3 3 3 3 3 3 3 3 3 3 3 4 3 3 4 6 7 9 10 10 10 9
10 11 16 11 10 10 10 10 10 10 10 9 9 9 21 10 7 3 5 5 4 3 4 4 4 4 3 4 3 3 4 5 3 3 4 6 6 7 8 9 11 9 7
10 11 11 11 10 11 10 11 9 10 10 10 10 10 21 7 6 5 4 5 5 5 4 4 4 4 5 4 4 4 5 6 4 5 5 5 7 8 9 9 10 7 6
11 11 11 11 10 13 11 9 9 9 10 10 10 9 8 8 7 7 7 5 5 5 5 4 5 6 4 5 5 5 7 7 6 5 5 6 7 7 7 8 9 7 5
10 11 11 11 11 11 10 11 10 11 11 10 10 9 9 9 9 9 8 7 4 5 5 5 5 7 7 6 5 6 7 7 7 6 8 8 7 8 8 8 10 9 5
10 10 11 11 11 11 11 11 11 10 10 10 10 9 9 9 9 9 8 7 6 6 7 6 5 8 9 10 10 10 11 13 11 9 6 7 10 11 9 9 10 5 1
10 10 10 10 10 10 11 11 12 11 11 10 10 10 10 10 10 10 9 8 7 8 8 6 7 10 10 9 12 12 12 13 11 13 9 8 8 8 7 9 8 2 0
Wind_Direction
304 308 313 314 314 313 311 309 307 308 308 309 304 295 281 270 269 245 234 231 223 216 212 206 213 204 207 209 207 202 211 193 246 275 257 268 284 281 282 273 251 250 256
306 309 313 315 314 311 311 310 307 305 307 307 306 301 281 275 271 249 243 225 223 225 226 214 217 214 213 208 200 207 207 207 197 248 231 265 263 266 273 295 284 280 263
307 314 318 318 317 314 311 310 310 308 306 306 308 301 296 290 267 257 235 230 219 223 228 221 224 212 223 212 223 227 215 240 214 221 248 233 260 279 295 286 280 264 255
310 316 317 314 312 311 309 309 309 310 308 307 308 304 299 292 266 257 240 233 244 243 220 213 213 217 230 218 225 227 226 227 232 243 227 249 234 253 234 286 293 262 269
309 313 309 310 310 311 312 312 311 310 309 305 300 300 299 283 264 238 224 222 250 262 274 254 229 219 229 228 223 222 216 230 234 245 253 241 244 262 242 222 277 293 285
303 301 299 301 305 311 313 313 313 311 311 310 303 294 293 291 276 257 244 212 223 236 243 225 230 233 240 250 254 255 230 213 240 241 258 260 267 257 264 264 278 286 302
293 292 297 296 303 311 312 315 315 313 311 306 300 294 288 283 285 272 242 232 227 234 224 223 240 239 227 235 263 266 265 265 255 243 264 267 272 270 281 281 273 266 267
292 289 292 285 307 312 312 311 312 314 310 308 304 298 293 284 284 276 261 255 226 230 220 219 226 231 220 209 229 239 242 241 255 271 266 266 262 259 251 251 259 265 263
295 291 309 311 309 312 312 311 311 309 310 308 308 308 304 305 308 304 297 288 231 227 214 215 219 228 240 255 227 227 236 262 251 262 267 260 262 266 271 288 290 287 286
299 292 308 310 308 306 305 306 305 307 304 307 306 307 306 303 306 309 307 207 230 231 218 221 229 223 258 265 247 233 248 252 226 245 255 268 274 273 278 272 275 279 288
307 296 308 310 312 302 299 302 303 303 302 299 302 304 300 297 299 305 290 257 227 220 226 222 225 253 258 258 259 205 225 240 255 256 243 247 229 231 244 246 256 265 274
307 318 314 311 308 303 302 301 301 306 301 303 306 307 308 300 298 313 307 276 254 208 216 217 224 239 251 260 266 273 279 297 330 251 237 265 259 237 240 251 250 253 257
332 316 311 309 306 303 301 302 306 303 301 298 307 307 305 303 299 305 309 300 278 285 214 220 226 237 248 263 285 289 300 143 233 271 267 271 259 248 242 263 261 262 262
319 316 313 309 306 307 305 302 299 300 294 306 300 296 306 308 295 292 280 283 282 269 257 250 241 251 260 267 256 291 291 235 233 265 272 260 264 268 242 231 268 280 277
318 314 310 306 308 312 303 301 296 293 301 300 299 302 313 305 300 310 310 250 238 246 242 177 218 230 213 211 256 247 248 239 252 258 268 274 267 253 279 252 265 273 279
317 314 309 318 317 302 303 300 295 314 305 306 303 306 302 307 317 315 318 324 331 325 275 139 217 201 215 203 224 241 234 248 255 270 282 289 297 298 295 290 278 272 275
314 313 323 310 310 314 315 313 313 313 307 312 310 315 322 314 318 322 320 323 10 29 43 28 26 308 277 251 244 224 233 228 221 241 254 289 291 289 286 282 279 272 271
311 316 311 306 308 305 303 302 311 312 313 317 314 320 320 328 323 318 317 337 360 1 31 293 265 256 259 248 256 256 272 272 245 235 244 249 274 277 281 276 273 273 273
322 311 311 306 306 301 307 309 304 306 303 302 312 317 317 321 319 316 337 50 322 313 302 303 256 259 259 256 254 258 253 261 251 237 239 255 268 277 280 274 272 271 269
314 309 310 310 312 313 306 303 303 302 305 305 310 312 310 301 293 301 320 285 282 268 268 265 269 252 248 248 254 251 260 257 262 245 240 253 273 268 267 274 275 271 268
310 314 318 308 304 305 303 304 301 312 307 306 306 308 312 329 327 296 305 305 288 257 259 265 271 263 251 259 260 250 259 270 257 238 241 261 262 278 282 277 281 263 267
316 311 307 305 302 303 301 297 309 308 310 310 310 308 317 317 301 287 275 268 268 258 253 252 268 252 255 236 239 241 255 259 235 236 247 256 272 272 276 278 288 280 275
309 307 307 305 303 302 299 306 308 308 308 309 311 312 311 304 299 298 294 277 260 265 263 249 257 269 253 240 229 236 258 261 248 217 241 260 264 273 287 288 287 290 280
313 312 309 307 306 311 307 315 311 310 310 309 308 308 307 305 300 295 291 288 269 263 258 254 250 253 267 264 250 244 249 251 250 246 237 253 266 276 274 286 292 292 269
315 309 309 306 312 306 314 311 310 309 308 308 307 302 300 297 295 291 288 284 277 276 273 260 256 259 258 255 255 254 254 260 260 248 242 243 256 270 273 277 281 277 261
308 307 305 307 308 308 311 310 309 308 308 307 306 304 300 297 295 294 292 283 277 274 268 263 258 255 260 266 264 262 258 258 256 247 238 239 247 255 260 270 278 262 117